Erzurum Bolge, Turkey

9:23 AM +03 on February 24, 2017 (GMT +0300)
Erzurum

Weather History for LTCE - September, 2012

Change the Weather History Date:

Sunday, September 23, 2012

  Actual Average Record
Temperature  
Mean Temperature 56 °F -  
Max Temperature 68 °F 61 °F 78 °F (2001)
Min Temperature 42 °F 38 °F 32 °F (1996)
Degree Days  
Heating Degree Days 9    
Growing Degree Days 6 (Base 50)    
Moisture  
Dew Point 38 °F    
Average Humidity 50    
Maximum Humidity 82    
Minimum Humidity 14    
Precipitation  
Precipitation 0.00 in 0.05 in - ()
Sea Level Pressure  
Sea Level Pressure 30.12 in    
Wind  
Wind Speed 10 mph ()    
Max Wind Speed 18 mph    
Max Gust Speed -    
Visibility 6.8 miles    
Events      
Averages and records for this station are not official NWS values.
T = Trace of Precipitation, MM = Missing Value Source: Averaged Metar Reports

Daily Weather History Graph

Daily Weather History Graph

Search for Another Location

Airport or City:

Trip Planner

Search our weather history database for the weather conditions in past years. The results will help you decide how hot, cold, wet, or windy it might be!

Date:

Astronomy

Sep. 23, 2012 Rise Set
Actual Time 6:04 AM EEST 6:10 PM EEST
Civil Twilight 5:36 AM EEST 6:37 PM EEST
Nautical Twilight 5:05 AM EEST 7:09 PM EEST
Astronomical Twilight 4:33 AM EEST 7:41 PM EEST
Moon 1:53 PM EEST (9/23) 11:58 PM EEST (9/23)
Length of Visible Light 13h 00m
Length of Day
12h 06m
First Quarter, 56% of the Moon is Illuminated
Sep 23
First Quarter
Sep 30
Full
Oct 8
Last Quarter
Oct 15
New
Oct 22
First Quarter

Hourly Weather History & Observations

Time (EEST) Temp. Windchill Dew Point Humidity Pressure Visibility Wind Dir Wind Speed Gust Speed Precip Events Conditions
12:20 AM 59.0 °F - 44.6 °F 59% 30.09 in 6.2 mi West 13.8 mph - N/A   Scattered Clouds
12:50 AM 59.0 °F - 44.6 °F 59% 30.09 in 6.2 mi West 13.8 mph - N/A   Scattered Clouds
1:20 AM 57.2 °F - 44.6 °F 63% 30.09 in 6.2 mi West 12.7 mph - N/A   Scattered Clouds
1:50 AM 57.2 °F - 46.4 °F 67% 30.09 in 6.2 mi WSW 9.2 mph - N/A   Unknown
2:20 AM 55.4 °F - 44.6 °F 67% 30.09 in 6.2 mi WSW 9.2 mph - N/A   Scattered Clouds
2:50 AM 55.4 °F - 44.6 °F 67% 30.09 in 6.2 mi West 8.1 mph - N/A   Scattered Clouds
3:00 AM 56 °F - 45 °F 58%  in 12 mi West 8.1 mph - -   Partly Cloudy
3:20 AM 55.4 °F - 44.6 °F 67% 30.09 in 6.2 mi WSW 6.9 mph - N/A   Scattered Clouds
3:50 AM 51.8 °F - 44.6 °F 76% 30.09 in 6.2 mi SSW 4.6 mph - N/A   Scattered Clouds
4:20 AM 53.6 °F - 42.8 °F 67% 30.09 in 6.2 mi SW 5.8 mph - N/A   Scattered Clouds
4:50 AM 51.8 °F - 42.8 °F 71% 30.09 in 6.2 mi Variable 2.3 mph - N/A   Scattered Clouds
5:20 AM 51.8 °F - 44.6 °F 76% 30.09 in 6.2 mi SW 4.6 mph - N/A   Scattered Clouds
5:50 AM 48.2 °F - 42.8 °F 82% 30.09 in 6.2 mi East 3.5 mph - N/A   Scattered Clouds
6:20 AM 51.8 °F - 42.8 °F 71% 30.09 in 6.2 mi NW 3.5 mph - N/A   Scattered Clouds
6:50 AM 51.8 °F - 42.8 °F 71% 30.09 in 6.2 mi West 4.6 mph - N/A   Scattered Clouds
7:20 AM 51.8 °F - 42.8 °F 71% 30.12 in 6.2 mi Calm Calm - N/A   Scattered Clouds
7:50 AM 55.4 °F - 44.6 °F 67% 30.12 in 6.2 mi Calm Calm - N/A   Scattered Clouds
8:20 AM 59.0 °F - 42.8 °F 55% 30.12 in 6.2 mi WSW 13.8 mph - N/A   Scattered Clouds
8:50 AM 60.8 °F - 42.8 °F 52% 30.12 in 6.2 mi West 17.3 mph - N/A   Scattered Clouds
9:00 AM 60 °F - 42 °F 41%  in 12 mi West 18.4 mph - -   Partly Cloudy
9:20 AM 60.8 °F - 42.8 °F 52% 30.12 in 6.2 mi West 17.3 mph - N/A   Scattered Clouds
9:50 AM 62.6 °F - 41.0 °F 45% 30.12 in 6.2 mi West 18.4 mph - N/A   Scattered Clouds
10:20 AM 62.6 °F - 41.0 °F 45% 30.12 in 6.2 mi West 16.1 mph - N/A   Scattered Clouds
10:50 AM 62.6 °F - 41.0 °F 45% 30.12 in 6.2 mi West 16.1 mph - N/A   Scattered Clouds
11:20 AM 64.4 °F - 39.2 °F 40% 30.12 in 6.2 mi West 17.3 mph - N/A   Scattered Clouds
11:50 AM 66.2 °F - 37.4 °F 35% 30.12 in 6.2 mi West 16.1 mph - N/A   Scattered Clouds
12:20 PM 66.2 °F - 35.6 °F 32% 30.09 in 6.2 mi West 17.3 mph - N/A   Scattered Clouds
12:50 PM 66.2 °F - 32.0 °F 28% 30.09 in 6.2 mi West 17.3 mph - N/A   Scattered Clouds
1:20 PM 68.0 °F - 30.2 °F 24% 30.09 in 6.2 mi West 16.1 mph - N/A   Scattered Clouds
1:50 PM 68.0 °F - 30.2 °F 24% 30.09 in 6.2 mi West 16.1 mph - N/A   Scattered Clouds
2:20 PM 66.2 °F - 30.2 °F 26% 30.09 in 6.2 mi West 12.7 mph - N/A   Scattered Clouds
2:50 PM 66.2 °F - 30.2 °F 26% 30.09 in 6.2 mi West 15.0 mph - N/A   Scattered Clouds
3:00 PM 67 °F - 29 °F 14%  in 12 mi West 15.0 mph - -   Partly Cloudy
3:20 PM 68.0 °F - 30.2 °F 24% 30.09 in 6.2 mi West 16.1 mph - N/A   Scattered Clouds
3:50 PM 66.2 °F - 32.0 °F 28% 30.09 in 6.2 mi West 15.0 mph - N/A   Scattered Clouds
4:20 PM 66.2 °F - 32.0 °F 28% 30.09 in 6.2 mi West 18.4 mph - N/A   Scattered Clouds
4:50 PM 64.4 °F - 32.0 °F 30% 30.09 in 6.2 mi West 16.1 mph - N/A   Partly Cloudy
5:20 PM 64.4 °F - 32.0 °F 30% 30.09 in 6.2 mi West 16.1 mph - N/A   Partly Cloudy
5:50 PM 60.8 °F - 32.0 °F 34% 30.12 in 6.2 mi West 13.8 mph - N/A   Partly Cloudy
6:20 PM 59.0 °F - 32.0 °F 36% 30.12 in 6.2 mi West 8.1 mph - N/A   Partly Cloudy
6:50 PM 57.2 °F - 32.0 °F 38% 30.12 in - West 9.2 mph - N/A   Clear
7:20 PM 55.4 °F - 33.8 °F 44% 30.15 in - WNW 5.8 mph - N/A   Clear
7:50 PM 53.6 °F - 33.8 °F 47% 30.18 in - WNW 9.2 mph - N/A   Clear
8:20 PM 53.6 °F - 35.6 °F 51% 30.18 in - WNW 8.1 mph - N/A   Clear
8:50 PM 51.8 °F - 35.6 °F 54% 30.18 in - WSW 6.9 mph - N/A   Clear
9:00 PM 52 °F - 35 °F 40%  in 12 mi WSW 6.9 mph - -  
9:20 PM 50.0 °F - 35.6 °F 58% 30.18 in - SW 5.8 mph - N/A   Clear
9:50 PM 50.0 °F - 35.6 °F 58% 30.18 in - WSW 9.2 mph - N/A   Clear
10:20 PM 46.4 °F 44.3 °F 33.8 °F 62% 30.18 in - Variable 4.6 mph - N/A   Clear
10:50 PM 44.6 °F - 33.8 °F 66% 30.18 in - Calm Calm - N/A   Clear
11:20 PM 46.4 °F 45.2 °F 33.8 °F 62% 30.18 in - SW 3.5 mph - N/A   Clear
11:50 PM 42.8 °F - 32.0 °F 66% 30.21 in - Calm Calm - N/A   Clear